When you browse on this site, cookies collect data to enhance your experience and personalize the content and advertising you see.
Visit our Privacy Policy to learn more. By continuing to use the site, you agree to this use of cookies and data.

Météo par heure à Xiangcheng

Ce jour, 10 Juillet, Vendredi

Heure Température Précipitation Vent Pression Humidité
00:00 +28°C° 0 mm 2 m/s 743 mmHg 62%
01:00 +27°C° 0 mm 2 m/s 743 mmHg 65%
02:00 +27°C° 0 mm 1 m/s 743 mmHg 71%
03:00 +26°C° 0 mm 1 m/s 743 mmHg 72%
04:00 +26°C° 0 mm 2 m/s 743 mmHg 73%
05:00 +26°C° 0 mm 2 m/s 743 mmHg 73%
06:00 +27°C° 0 mm 2 m/s 744 mmHg 72%
07:00 +28°C° 0 mm 2 m/s 744 mmHg 70%
08:00 +29°C° 0 mm 2 m/s 744 mmHg 69%
09:00 +30°C° 0 mm 2 m/s 744 mmHg 62%
10:00 +33°C° 0 mm 3 m/s 744 mmHg 55%
11:00 +35°C° 0 mm 3 m/s 745 mmHg 49%
12:00 +35°C° 0 mm 3 m/s 744 mmHg 45%
13:00 +36°C° 0 mm 3 m/s 744 mmHg 41%
14:00 +36°C° 0 mm 3 m/s 744 mmHg 42%
15:00 +36°C° 0 mm 4 m/s 744 mmHg 41%
16:00 +36°C° 0 mm 4 m/s 743 mmHg 40%
17:00 +36°C° 0 mm 5 m/s 743 mmHg 39%
18:00 +35°C° 0 mm 4 m/s 743 mmHg 44%
19:00 +34°C° 0 mm 3 m/s 743 mmHg 48%
20:00 +31°C° 0 mm 3 m/s 743 mmHg 53%
21:00 +30°C° 0 mm 2 m/s 743 mmHg 57%
22:00 +30°C° 0 mm 2 m/s 744 mmHg 60%
23:00 +29°C° 0 mm 1 m/s 744 mmHg 64%

Demain, 11 Juillet, Samedi

Heure Température Précipitation Vent Pression Humidité
00:00 +29°C° 0 mm 2 m/s 744 mmHg 66%
01:00 +28°C° 0 mm 2 m/s 744 mmHg 69%
02:00 +28°C° 0 mm 2 m/s 744 mmHg 71%
03:00 +28°C° 0 mm 2 m/s 744 mmHg 73%
04:00 +28°C° 0 mm 2 m/s 744 mmHg 74%
05:00 +27°C° 0 mm 2 m/s 744 mmHg 76%
06:00 +27°C° 0 mm 2 m/s 744 mmHg 77%
07:00 +27°C° 0 mm 3 m/s 744 mmHg 77%
08:00 +27°C° 0 mm 3 m/s 744 mmHg 78%
09:00 +27°C° 0.5 mm 4 m/s 744 mmHg 79%
10:00 +26°C° 0.5 mm 5 m/s 744 mmHg 80%
11:00 +26°C° 0.5 mm 6 m/s 745 mmHg 82%
12:00 +26°C° 1.8 mm 6 m/s 744 mmHg 84%
13:00 +24°C° 1.8 mm 6 m/s 744 mmHg 86%
14:00 +24°C° 1.8 mm 6 m/s 744 mmHg 88%
15:00 +23°C° 2.9 mm 7 m/s 744 mmHg 89%
16:00 +23°C° 2.9 mm 7 m/s 744 mmHg 89%
17:00 +22°C° 2.9 mm 8 m/s 744 mmHg 89%
18:00 +22°C° 1.4 mm 7 m/s 744 mmHg 90%
19:00 +22°C° 1.4 mm 6 m/s 744 mmHg 91%
20:00 +21°C° 1.4 mm 6 m/s 744 mmHg 92%
21:00 +21°C° 2.6 mm 6 m/s 744 mmHg 93%
22:00 +21°C° 2.6 mm 6 m/s 745 mmHg 93%
23:00 +20°C° 2.6 mm 6 m/s 745 mmHg 94%

Après-demain, 12 Juillet, Dimanche

Heure Température Précipitation Vent Pression Humidité
00:00 +20°C° 1.2 mm 6 m/s 745 mmHg 94%
01:00 +20°C° 1.2 mm 6 m/s 744 mmHg 94%
02:00 +20°C° 1.2 mm 6 m/s 744 mmHg 94%
03:00 +21°C° 0.9 mm 6 m/s 744 mmHg 94%
04:00 +21°C° 0.9 mm 5 m/s 744 mmHg 93%
05:00 +21°C° 0.9 mm 5 m/s 744 mmHg 93%
06:00 +21°C° 0.1 mm 5 m/s 744 mmHg 92%
07:00 +21°C° 0.1 mm 5 m/s 745 mmHg 92%
08:00 +21°C° 0.1 mm 5 m/s 745 mmHg 91%
09:00 +21°C° 0.2 mm 5 m/s 745 mmHg 90%
10:00 +21°C° 0.2 mm 5 m/s 745 mmHg 90%
11:00 +22°C° 0.2 mm 5 m/s 746 mmHg 89%
12:00 +22°C° 0.1 mm 5 m/s 746 mmHg 89%
13:00 +22°C° 0.1 mm 4 m/s 745 mmHg 89%
14:00 +22°C° 0.1 mm 4 m/s 745 mmHg 90%
15:00 +22°C° 0.1 mm 4 m/s 745 mmHg 89%
16:00 +22°C° 0.1 mm 4 m/s 746 mmHg 88%
17:00 +22°C° 0.1 mm 4 m/s 746 mmHg 87%
18:00 +22°C° 0 mm 4 m/s 746 mmHg 88%
19:00 +22°C° 0 mm 3 m/s 746 mmHg 88%
20:00 +22°C° 0 mm 3 m/s 746 mmHg 89%
21:00 +22°C° 0 mm 3 m/s 746 mmHg 89%
22:00 +21°C° 0 mm 2 m/s 747 mmHg 89%
23:00 +21°C° 0 mm 2 m/s 747 mmHg 89%

13 Juillet, Lundi

Heure Température Précipitation Vent Pression Humidité
00:00 +21°C° 0 mm 2 m/s 747 mmHg 90%
01:00 +21°C° 0 mm 2 m/s 747 mmHg 90%
02:00 +21°C° 0 mm 2 m/s 746 mmHg 91%
03:00 +21°C° 0 mm 2 m/s 746 mmHg 91%
04:00 +21°C° 0 mm 1 m/s 746 mmHg 92%
05:00 +21°C° 0 mm 1 m/s 746 mmHg 92%
06:00 +22°C° 0 mm 1 m/s 747 mmHg 87%
07:00 +23°C° 0 mm 1 m/s 747 mmHg 82%
08:00 +24°C° 0 mm 1 m/s 747 mmHg 78%
09:00 +26°C° 0 mm 1 m/s 747 mmHg 72%
10:00 +27°C° 0 mm 1 m/s 747 mmHg 67%
11:00 +29°C° 0 mm 1 m/s 747 mmHg 62%
12:00 +29°C° 0 mm 1 m/s 747 mmHg 60%
13:00 +30°C° 0 mm 1 m/s 747 mmHg 58%
14:00 +31°C° 0 mm 2 m/s 746 mmHg 56%
15:00 +30°C° 0 mm 2 m/s 746 mmHg 57%
16:00 +30°C° 0 mm 2 m/s 746 mmHg 59%
17:00 +30°C° 0 mm 1 m/s 745 mmHg 60%
18:00 +29°C° 0 mm 2 m/s 746 mmHg 63%
19:00 +28°C° 0 mm 2 m/s 746 mmHg 67%
20:00 +27°C° 0 mm 2 m/s 746 mmHg 70%
21:00 +27°C° 0 mm 1 m/s 746 mmHg 73%
22:00 +26°C° 0 mm 1 m/s 747 mmHg 75%
23:00 +26°C° 0 mm 1 m/s 747 mmHg 77%

14 Juillet, Mardi

Heure Température Précipitation Vent Pression Humidité
00:00 +26°C° 0 mm 1 m/s 747 mmHg 79%
01:00 +25°C° 0 mm 1 m/s 747 mmHg 80%
02:00 +23°C° 0 mm 0 m/s 747 mmHg 81%
03:00 +25°C° 0 mm 1 m/s 746 mmHg 81%
04:00 +25°C° 0 mm 1 m/s 746 mmHg 81%
05:00 +25°C° 0 mm 1 m/s 746 mmHg 82%
06:00 +25°C° 0 mm 2 m/s 747 mmHg 80%
07:00 +26°C° 0 mm 2 m/s 747 mmHg 79%
08:00 +26°C° 0 mm 3 m/s 748 mmHg 77%
09:00 +26°C° 0.1 mm 3 m/s 748 mmHg 77%
10:00 +26°C° 0.1 mm 3 m/s 748 mmHg 78%
11:00 +26°C° 0.1 mm 3 m/s 748 mmHg 78%
12:00 +26°C° 0.3 mm 3 m/s 748 mmHg 81%
13:00 +25°C° 0.3 mm 2 m/s 747 mmHg 85%
14:00 +25°C° 0.3 mm 2 m/s 747 mmHg 88%
15:00 +25°C° 1 mm 1 m/s 747 mmHg 89%
16:00 +24°C° 1 mm 1 m/s 746 mmHg 89%
17:00 +22°C° 1 mm 0 m/s 746 mmHg 90%
18:00 +22°C° 0 mm 0 m/s 746 mmHg 91%
19:00 +24°C° 0 mm 1 m/s 747 mmHg 92%
20:00 +24°C° 0 mm 1 m/s 747 mmHg 93%
21:00 +23°C° 0 mm 1 m/s 747 mmHg 93%
22:00 +23°C° 0 mm 1 m/s 747 mmHg 94%
23:00 +23°C° 0 mm 1 m/s 747 mmHg 95%

15 Juillet, Mercredi

Heure Température Précipitation Vent Pression Humidité
00:00 +23°C° 0 mm 1 m/s 746 mmHg 95%
01:00 +20°C° 0 mm 0 m/s 746 mmHg 95%
02:00 +20°C° 0 mm 0 m/s 746 mmHg 95%
03:00 +20°C° 0 mm 0 m/s 746 mmHg 95%
04:00 +20°C° 0 mm 0 m/s 745 mmHg 95%
05:00 +20°C° 0 mm 0 m/s 745 mmHg 95%
06:00 +21°C° 0 mm 0 m/s 746 mmHg 91%
07:00 +22°C° 0 mm 0 m/s 746 mmHg 86%
08:00 +23°C° 0 mm 0 m/s 746 mmHg 82%
09:00 +25°C° 0 mm 0 m/s 746 mmHg 74%
10:00 +29°C° 0 mm 1 m/s 746 mmHg 66%
11:00 +31°C° 0 mm 1 m/s 746 mmHg 58%
12:00 +31°C° 0 mm 1 m/s 745 mmHg 57%
13:00 +32°C° 0 mm 2 m/s 745 mmHg 55%
14:00 +32°C° 0 mm 2 m/s 745 mmHg 54%
15:00 +32°C° 0 mm 2 m/s 744 mmHg 53%
16:00 +32°C° 0 mm 1 m/s 744 mmHg 53%
17:00 +32°C° 0 mm 1 m/s 744 mmHg 53%
18:00 +31°C° 0 mm 1 m/s 744 mmHg 56%
19:00 +30°C° 0 mm 1 m/s 744 mmHg 60%
20:00 +29°C° 0 mm 1 m/s 744 mmHg 64%
21:00 +29°C° 0 mm 1 m/s 745 mmHg 65%
22:00 +28°C° 0 mm 1 m/s 745 mmHg 67%
23:00 +26°C° 0 mm 0 m/s 745 mmHg 69%
Voir plus